Date String (YYYY-MM-DD hh:mm:ss) UTC,Instrument flags,absolute air pressure of the measurement (hPa),sample flow rate (lpm),inlet stack bypass flow (lpm),air temperature of the measurement (°C),ambient temperature measured by the external sensor (°C),aerosol sample conditioner tube jacket temperature (°C),OPC LED temperature (°C),internal box temperature (°C),relative humidity of the measurement (%),span deviation,mass concentration of particles derived from Lorenz-Mie calculation of OPC scattering (μg/m³),mass concentration of particles derived from Lorenz-Mie calculation of OPC scattering (μg/m³),mass concentration of particles derived from Lorenz-Mie calculation of OPC scattering (μg/m³)
DateTimeUTC,F1_M11,P_M11,Q1_M11,Q2_M11,T1_M11,T2_M11,T3_M11,T4_M11,T5_M11,U1_M11,ZSPAN_M11,X0_M11,X2_M11,X1_M11
2024-03-05 13:00:00,SystemResetWarning,0828.0,5.00,000.00,018.3,017.5,000.0,027.1,020.1,14.7,0000.0,0008.00,0001.51,0001.01
2024-03-05 13:01:00,SystemResetWarning,0828.1,5.02,000.00,018.4,018.2,000.0,027.1,020.4,14.6,0000.0,0007.97,0001.46,0001.01
2024-03-05 13:02:00,SystemResetWarning,0828.1,4.99,000.00,018.6,018.9,000.0,027.2,020.9,14.4,0000.0,0008.06,0001.48,0001.01
2024-03-05 13:03:00,SystemResetWarning,0828.1,4.99,000.00,018.7,018.8,000.0,027.1,020.7,14.4,0000.0,0008.23,0001.51,0001.03
2024-03-05 13:04:00,SystemResetWarning,0828.1,5.01,000.00,018.7,018.6,000.0,027.1,020.5,14.4,0000.0,0008.04,0001.53,0001.04
2024-03-05 13:05:00,SystemResetWarning,0828.0,5.01,000.00,018.6,018.4,000.0,027.0,020.3,14.5,0000.0,0007.26,0001.49,0001.04
2024-03-05 13:06:00,SystemResetWarning,0828.0,5.00,000.00,018.6,018.1,000.0,027.0,020.2,14.6,0000.0,0006.01,0001.51,0001.04
2024-03-05 13:07:00,SystemResetWarning,0828.1,4.99,000.00,018.5,018.0,000.0,027.0,020.1,14.7,0000.0,0005.18,0001.52,0001.04
2024-03-05 13:08:00,SystemResetWarning,0828.2,4.99,000.00,018.4,017.8,000.0,027.0,020.0,14.7,0000.0,0005.23,0001.56,0001.06
2024-03-05 13:09:00,SystemResetWarning,0828.4,5.00,000.00,018.4,017.7,000.0,027.0,020.0,14.8,0000.0,0005.23,0001.56,0001.06
2024-03-05 13:10:00,SystemResetWarning,0828.4,5.01,000.00,018.3,017.6,000.0,027.1,020.0,14.8,0000.0,0005.57,0001.54,0001.07
2024-03-05 13:11:00,SystemResetWarning,0828.3,5.00,000.00,018.3,017.6,000.0,027.1,020.0,14.8,0000.0,0005.91,0001.58,0001.08
2024-03-05 13:12:00,SystemResetWarning,0828.1,4.99,000.00,018.3,017.5,000.0,027.1,020.0,14.9,0000.0,0006.03,0001.66,0001.08
2024-03-05 13:13:00,SystemResetWarning,0828.0,5.00,000.00,018.3,017.4,000.0,027.1,020.0,14.9,0000.0,0005.77,0001.63,0001.09
2024-03-05 13:14:00,SystemResetWarning,0828.0,5.00,000.00,018.3,017.4,000.0,027.1,020.0,14.9,0000.0,0005.75,0001.65,0001.10
2024-03-05 13:15:00,SystemResetWarning,0828.0,5.01,000.00,018.3,017.8,000.0,027.1,020.3,14.9,0000.0,0006.01,0001.67,0001.13
2024-03-05 13:16:00,SystemResetWarning,0828.2,5.00,000.00,018.5,018.7,000.0,027.2,020.8,14.8,0000.0,0006.20,0001.72,0001.14
2024-03-05 13:17:00,SystemResetWarning,0828.4,4.98,000.00,018.7,018.9,000.0,027.1,020.8,14.7,0000.0,0006.00,0001.71,0001.15
2024-03-05 13:18:00,SystemResetWarning,0828.4,5.00,000.00,018.7,018.6,000.0,027.1,020.5,14.7,0000.0,0006.07,0001.71,0001.17
2024-03-05 13:19:00,SystemResetWarning,0828.4,5.01,000.00,018.6,018.4,000.0,027.0,020.3,14.7,0000.0,0006.07,0001.69,0001.16
2024-03-05 13:20:00,SystemResetWarning,0828.2,5.00,000.00,018.6,018.2,000.0,027.0,020.2,14.8,0000.0,0006.04,0001.69,0001.17
2024-03-05 13:21:00,SystemResetWarning,0828.2,4.99,000.00,018.5,018.1,000.0,027.0,020.1,14.8,0000.0,0005.17,0001.70,0001.18
2024-03-05 13:22:00,SystemResetWarning,0828.1,5.01,000.00,018.5,017.9,000.0,027.0,020.1,14.9,0000.0,0004.52,0001.71,0001.18
2024-03-05 13:23:00,SystemResetWarning,0828.1,5.01,000.00,018.4,017.8,000.0,027.0,020.0,14.9,0000.0,0004.45,0001.68,0001.20
2024-03-05 13:24:00,SystemResetWarning,0828.1,5.00,000.00,018.4,017.7,000.0,027.0,020.0,15.0,0000.0,0004.66,0001.73,0001.23
2024-03-05 13:25:00,SystemResetWarning,0828.1,5.00,000.00,018.3,017.5,000.0,027.0,020.0,15.0,0000.0,0004.87,0001.78,0001.24
2024-03-05 13:26:00,SystemResetWarning,0828.2,5.00,000.00,018.3,017.5,000.0,027.0,020.0,15.0,0000.0,0003.84,0001.81,0001.24
2024-03-05 13:27:00,SystemResetWarning,0828.3,5.00,000.00,018.3,017.4,000.0,027.0,020.0,15.0,0000.0,0003.82,0001.83,0001.25
2024-03-05 13:28:00,SystemResetWarning,0828.4,5.00,000.00,018.3,017.4,000.0,027.0,020.0,15.0,0000.0,0003.89,0001.90,0001.26
2024-03-05 13:29:00,SystemResetWarning,0828.4,5.01,000.00,018.3,017.6,000.0,027.1,020.1,15.0,0000.0,0004.57,0002.02,0001.27
2024-03-05 13:30:00,SystemResetWarning,0828.4,5.01,000.00,018.4,018.4,000.0,027.1,020.6,14.9,0000.0,0004.82,0002.12,0001.29
2024-03-05 13:31:00,SystemResetWarning,0828.4,5.00,000.00,018.7,019.0,000.0,027.2,020.9,14.7,0000.0,0005.07,0002.20,0001.32
2024-03-05 13:32:00,SystemResetWarning,0828.2,4.99,000.00,018.7,018.8,000.0,027.1,020.7,14.7,0000.0,0005.37,0002.30,0001.34
2024-03-05 13:33:00,SystemResetWarning,0828.2,5.00,000.00,018.7,018.6,000.0,027.1,020.5,14.7,0000.0,0005.42,0002.33,0001.37
2024-03-05 13:34:00,SystemResetWarning,0828.2,5.00,000.00,018.6,018.4,000.0,027.0,020.4,14.8,0000.0,0005.64,0002.34,0001.38
2024-03-05 13:35:00,SystemResetWarning,0828.4,5.01,000.00,018.6,018.3,000.0,027.0,020.3,14.8,0000.0,0005.56,0002.34,0001.38
2024-03-05 13:36:00,SystemResetWarning,0828.5,5.00,000.00,018.5,018.1,000.0,027.0,020.2,14.8,0000.0,0005.38,0002.34,0001.39
2024-03-05 13:37:00,SystemResetWarning,0828.6,5.00,000.00,018.5,017.9,000.0,027.0,020.1,14.9,0000.0,0005.49,0002.36,0001.40
2024-03-05 13:38:00,SystemResetWarning,0828.6,5.01,000.00,018.4,017.8,000.0,027.0,020.0,15.0,0000.0,0005.60,0002.41,0001.42
2024-03-05 13:39:00,SystemResetWarning,0828.4,5.00,000.00,018.4,017.7,000.0,027.0,020.0,15.1,0000.0,0006.36,0002.46,0001.43
2024-03-05 13:40:00,SystemResetWarning,0828.3,5.00,000.00,018.3,017.6,000.0,027.0,020.0,15.2,0000.0,0005.94,0002.41,0001.44
2024-03-05 13:41:00,SystemResetWarning,0828.3,5.00,000.00,018.3,017.5,000.0,027.0,020.0,15.2,0000.0,0005.88,0002.35,0001.46
2024-03-05 13:42:00,SystemResetWarning,0828.3,5.00,000.00,018.3,017.5,000.0,027.0,020.0,15.3,0000.0,0005.72,0002.30,0001.46
2024-03-05 13:43:00,SystemResetWarning,0828.5,5.00,000.00,018.3,017.4,000.0,027.0,020.0,15.3,0000.0,0005.48,0002.28,0001.47
2024-03-05 13:44:00,SystemResetWarning,0828.6,5.00,000.00,018.3,017.7,000.0,027.1,020.2,15.3,0000.0,0005.79,0002.21,0001.46
2024-03-05 13:45:00,SystemResetWarning,0828.8,5.01,000.00,018.5,018.6,000.0,027.2,020.7,15.2,0000.0,0007.06,0002.19,0001.45
2024-03-05 13:46:00,SystemResetWarning,0828.7,4.99,000.00,018.7,019.1,000.0,027.2,021.0,15.0,0000.0,0007.21,0002.21,0001.46
2024-03-05 13:47:00,SystemResetWarning,0828.6,4.99,000.00,018.8,018.9,000.0,027.1,020.8,15.0,0000.0,0007.95,0002.15,0001.47
2024-03-05 13:48:00,SystemResetWarning,0828.4,5.01,000.00,018.7,018.7,000.0,027.1,020.6,15.0,0000.0,0008.14,0002.11,0001.47
2024-03-05 13:49:00,SystemResetWarning,0828.3,5.01,000.00,018.7,018.5,000.0,027.1,020.4,15.1,0000.0,0008.10,0002.09,0001.48
2024-03-05 13:50:00,SystemResetWarning,0828.3,5.00,000.00,018.6,018.3,000.0,027.0,020.3,15.2,0000.0,0007.57,0002.05,0001.48
2024-03-05 13:51:00,SystemResetWarning,0828.4,4.99,000.00,018.6,018.1,000.0,027.0,020.2,15.2,0000.0,0007.52,0002.07,0001.51
2024-03-05 13:52:00,SystemResetWarning,0828.5,4.99,000.00,018.5,018.0,000.0,027.0,020.1,15.2,0000.0,0007.47,0002.12,0001.52
2024-03-05 13:53:00,SystemResetWarning,0828.6,5.00,000.00,018.5,017.9,000.0,027.0,020.0,15.3,0000.0,0007.56,0002.17,0001.53
2024-03-05 13:54:00,SystemResetWarning,0828.7,5.01,000.00,018.4,017.8,000.0,027.0,020.0,15.3,0000.0,0007.65,0002.20,0001.52
2024-03-05 13:55:00,SystemResetWarning,0828.7,5.00,000.00,018.4,017.7,000.0,027.0,020.0,15.4,0000.0,0007.57,0002.24,0001.53
2024-03-05 13:56:00,SystemResetWarning,0828.7,4.99,000.00,018.4,017.6,000.0,027.0,020.0,15.4,0000.0,0006.39,0002.27,0001.56
2024-03-05 13:57:00,SystemResetWarning,0828.6,4.99,000.00,018.3,017.6,000.0,027.0,020.0,15.5,0000.0,0006.23,0002.29,0001.57
2024-03-05 13:58:00,SystemResetWarning,0828.6,5.00,000.00,018.3,017.5,000.0,027.0,020.0,15.5,0000.0,0005.25,0002.33,0001.57
2024-03-05 13:59:00,SystemResetWarning,0828.6,5.01,000.00,018.3,017.5,000.0,027.0,020.0,15.5,0000.0,0004.39,0002.35,0001.58
